Location: Unspecified
(0.0000°N, 0.0000°E)
Time: 19:13:57
(UTC+00:00)

SR - Visible Passes

Search period start: 26 July 2014 00:00
Search period end: 05 August 2014 00:00
Orbit: 575 x 890 km, 66.7° (Epoch: 26 July)

Date Brightness Start Highest point End Pass type
(mag) Time Alt. Az. Time Alt. Az. Time Alt. Az.
31 Jul ? 20:35:47 10° N 20:36:39 14° N 20:36:39 14° N visible
01 Aug ? 19:48:58 10° NNE 19:50:17 14° NE 19:50:17 14° NE visible
02 Aug ? 20:41:19 10° NNW 20:43:32 24° NNW 20:43:32 24° NNW visible
03 Aug ? 19:53:21 10° N 19:57:20 39° NNE 19:57:20 39° NNE visible
04 Aug ? 19:06:29 10° NNE 19:10:30 20° ENE 19:11:13 20° E visible
04 Aug ? 20:47:56 10° NW 20:50:47 23° W 20:50:47 23° W visible
